Date,TemperatureHighF,TemperatureAvgF,TemperatureLowF,DewpointHighF,DewpointAvgF,DewpointLowF,HumidityHigh,HumidityAvg,HumidityLow,PressureMaxIn,PressureMinIn,WindSpeedMaxMPH,WindSpeedAvgMPH,GustSpeedMaxMPH,PrecipitationSumIn
2013-3-1,44,38,33,-100,-100,-100,0,0,100,0.00,40.00,0,-999,0,0.00
2013-3-2,45,38,30,-100,-100,-100,0,0,100,0.00,40.00,0,-999,0,0.00
2013-3-3,33,28,22,-100,-100,-100,0,0,100,0.00,40.00,0,-999,0,0.00
2013-3-4,21,18,16,-100,-100,-100,0,0,100,0.00,40.00,0,-999,0,0.00
2013-3-5,31,31,31,-100,-100,-100,0,0,100,0.00,40.00,0,-999,0,0.00
2013-3-6,31,24,20,-100,-100,-100,0,0,100,0.00,40.00,0,-999,0,0.00
2013-3-7,29,22,18,-100,-100,-100,0,0,100,0.00,40.00,0,-999,0,0.00
2013-3-8,36,21,8,-100,-100,-100,0,0,100,0.00,40.00,0,-999,0,0.00
2013-3-9,37,27,10,-100,-100,-100,0,0,100,0.00,40.00,0,-999,0,0.00
2013-3-10,42,35,21,-100,-100,-100,0,0,100,0.00,40.00,0,-999,0,0.00
2013-3-11,41,34,26,-100,-100,-100,0,0,100,0.00,40.00,0,-999,0,0.00
2013-3-12,43,33,22,-100,-100,-100,0,0,100,0.00,40.00,0,-999,0,0.00
2013-3-13,51,41,32,-100,-100,-100,0,0,100,0.00,40.00,0,-999,0,0.00
2013-3-14,52,40,32,-100,-100,-100,0,0,100,0.00,40.00,0,-999,0,0.00
2013-3-15,50,39,34,-100,-100,-100,0,0,100,0.00,40.00,0,-999,0,0.00
2013-3-16,41,36,30,-100,-100,-100,0,0,100,0.00,40.00,0,-999,0,0.00
2013-3-17,31,25,20,-100,-100,-100,0,0,100,0.00,40.00,0,-999,0,0.01
2013-3-18,34,23,15,-100,-100,-100,0,0,100,0.00,40.00,0,-999,0,0.00
2013-3-19,37,27,16,-100,-100,-100,0,0,100,0.00,40.00,0,-999,0,0.01
2013-3-20,43,33,26,-100,-100,-100,0,0,100,0.00,40.00,0,-999,0,0.01
2013-3-21,32,24,16,-100,-100,-100,0,0,100,0.00,40.00,0,-999,0,0.00
2013-3-22,26,17,4,-100,-100,-100,0,0,100,0.00,40.00,0,-999,0,0.00
2013-3-23,23,15,5,-100,-100,-100,0,0,100,0.00,40.00,0,-999,0,0.00
2013-3-24,29,15,3,-100,-100,-100,0,0,100,0.00,40.00,0,-999,0,0.00
2013-3-25,36,22,2,-100,-100,-100,0,0,100,0.00,40.00,0,-999,0,0.00
2013-3-26,42,33,27,-100,-100,-100,0,0,100,0.00,40.00,0,-999,0,0.01
2013-3-27,45,32,21,-100,-100,-100,0,0,100,0.00,40.00,0,-999,0,0.00
2013-3-28,46,37,27,-100,-100,-100,0,0,100,0.00,40.00,0,-999,0,0.00
2013-3-29,45,38,31,-100,-100,-100,0,0,100,0.00,40.00,0,-999,0,0.00
2013-3-30,47,38,30,-100,-100,-100,0,0,100,0.00,40.00,0,-999,0,0.00
2013-3-31,54,40,26,-100,-100,-100,0,0,100,0.00,40.00,0,-999,0,0.00